Temperature
18 18 18 18 18 18 18 18 18 18 18 18 19 18 19 19 18 18 18 18 18 18 18 18 17 17 17 17 17 17 17 17 17 17 17 17 17 17 17 17 16 16 16
18 18 18 18 18 18 18 18 18 18 18 18 18 18 18 18 18 18 18 18 18 18 18 18 18 17 17 17 17 17 17 17 17 17 17 17 16 17 17 17 16 16 16
18 18 18 18 18 18 18 19 18 18 18 19 18 18 19 18 18 18 18 18 18 18 18 18 18 18 17 17 17 17 17 17 17 17 17 17 17 17 17 17 17 16 16
19 19 19 19 18 19 19 19 18 19 19 19 19 19 19 19 18 18 18 18 18 18 18 18 18 18 18 17 17 17 17 17 17 17 17 17 17 17 17 17 17 16 16
19 19 19 19 19 19 19 19 19 19 19 19 19 19 19 19 18 18 18 18 18 18 18 18 18 18 18 18 18 17 17 17 17 17 17 17 17 17 17 17 16 16 16
19 19 19 19 19 19 19 19 18 18 18 18 19 19 19 19 19 19 18 18 18 18 18 17 17 17 18 18 18 18 17 17 17 17 17 17 17 17 17 16 16 16 16
19 19 19 18 19 19 18 18 18 18 18 18 19 19 19 19 19 18 18 18 18 18 18 18 17 17 17 18 18 18 17 17 17 17 17 17 17 16 16 16 16 16 16
19 19 18 18 18 18 18 18 18 18 18 18 19 19 19 19 18 19 18 18 18 18 18 18 17 17 17 17 17 17 17 17 17 17 17 17 16 17 16 16 16 16 16
19 19 18 18 18 18 18 18 18 18 18 18 18 19 20 20 19 19 18 18 18 18 18 18 17 17 17 17 17 17 17 17 17 17 17 17 16 16 16 16 16 16 16
18 18 18 18 18 18 18 18 18 18 18 18 18 18 18 19 19 19 19 18 18 18 18 17 17 17 17 17 17 17 17 17 17 17 17 17 16 16 16 16 16 16 16
18 18 18 18 18 18 18 18 18 18 18 18 18 18 18 18 18 19 19 18 18 18 18 17 17 17 17 17 17 17 17 17 17 17 17 17 16 16 16 16 16 16 16
18 18 18 18 18 18 18 18 18 18 18 18 18 18 18 18 19 19 19 18 18 18 17 17 17 17 17 17 16 17 17 17 17 17 17 16 16 16 16 16 16 16 16
18 18 18 18 18 18 18 18 17 17 17 17 18 18 18 18 18 18 18 18 18 18 17 17 17 17 17 16 16 16 16 17 16 16 16 16 16 16 16 16 16 16 16
18 18 18 17 17 17 17 17 17 17 17 17 17 17 17 18 17 17 18 18 18 18 18 17 17 16 16 16 16 16 16 16 16 16 16 16 16 16 16 16 16 16 16
17 17 17 17 17 17 17 17 17 17 17 17 17 17 17 17 17 17 17 17 18 18 18 17 17 16 16 16 16 16 16 16 16 16 16 16 16 16 16 16 16 16 16
18 17 17 17 17 17 17 17 17 17 17 17 17 17 17 17 17 17 17 17 17 17 18 17 17 16 16 16 16 15 15 16 16 16 16 16 16 16 16 16 16 16 16
18 17 17 17 17 17 17 17 16 17 17 17 16 16 16 16 16 16 16 16 16 16 17 17 16 16 16 15 15 15 15 15 15 16 16 16 16 16 15 15 15 15 15
17 17 17 17 17 17 16 16 16 16 16 16 16 16 16 16 16 16 16 16 16 16 16 16 16 16 15 15 15 15 15 15 15 15 15 15 15 15 15 15 15 15 15
17 17 17 17 17 16 16 16 16 15 15 15 15 15 15 15 15 15 15 15 15 15 15 15 16 15 15 15 15 15 15 15 15 15 15 15 15 15 15 15 15 15 15
17 17 17 17 17 16 16 16 15 15 15 15 15 15 15 15 15 15 15 15 15 15 15 15 15 15 15 15 14 15 15 15 15 15 15 15 15 15 15 15 15 15 15
17 17 16 16 16 16 16 16 15 15 15 15 15 14 14 15 15 15 15 15 14 15 15 15 15 15 15 14 15 14 15 15 15 14 14 14 14 14 14 14 14 14 14
16 16 16 16 16 16 16 16 16 15 15 14 14 14 14 14 14 15 14 14 14 14 14 14 15 15 14 14 14 14 14 14 14 14 14 14 14 14 14 14 14 14 14
16 16 16 15 15 16 16 15 15 15 15 14 14 14 14 14 14 14 14 14 14 14 14 14 14 14 14 14 13 13 13 13 14 14 14 14 14 14 14 14 14 14 14
16 16 15 15 15 15 15 15 15 15 14 14 14 14 14 14 14 13 13 13 13 13 13 13 13 13 13 13 13 13 13 13 13 13 13 13 14 14 14 14 13 13 13
15 15 15 15 15 15 15 15 15 14 14 14 14 14 13 13 14 13 13 13 13 13 13 13 13 13 13 13 13 12 12 13 13 14 13 13 13 13 13 13 13 13 13
15 15 14 15 14 14 15 15 14 14 14 14 14 13 14 13 13 13 13 13 13 13 13 12 12 12 12 12 12 12 12 12 13 13 13 12 13 13 13 13 13 13 13
Wind_Speed
2 1 1 1 1 2 3 2 1 1 1 2 2 2 2 2 2 3 5 8 7 6 6 6 6 7 7 7 8 8 8 7 7 7 7 7 7 7 8 8 8 9 9
1 1 2 1 1 1 1 1 1 1 1 1 1 2 2 2 3 3 3 7 9 7 7 6 6 6 6 6 7 8 8 7 7 7 7 7 7 8 8 8 9 9 9
1 1 1 1 1 1 1 1 1 1 2 2 1 1 2 2 2 3 3 3 6 9 8 7 6 6 6 6 6 7 8 8 8 8 8 8 8 8 8 9 9 10 10
1 1 1 1 1 1 1 1 2 1 1 1 1 1 1 2 2 3 3 3 3 3 7 9 7 7 6 6 6 7 7 8 8 8 8 8 8 8 7 9 10 9 9
1 2 0 0 2 1 1 2 1 1 1 1 1 2 1 1 2 2 2 3 3 3 3 8 9 8 7 7 7 7 7 7 7 8 8 7 7 8 8 8 9 9 9
2 2 1 1 2 1 1 1 1 2 2 2 2 1 1 1 2 2 2 2 3 3 3 3 5 7 9 8 7 7 7 7 7 7 7 8 7 7 8 8 9 9 10
2 2 1 1 2 1 2 2 2 2 2 1 1 1 1 2 2 2 2 2 3 3 2 2 3 3 5 9 7 6 6 7 7 7 7 6 6 7 7 8 9 9 9
2 3 2 2 2 2 2 2 2 2 2 1 2 2 2 3 3 2 3 3 2 2 2 3 2 3 3 3 5 7 6 6 6 7 7 6 6 6 6 6 7 9 9
2 1 2 2 2 3 2 2 3 4 2 2 2 3 2 1 1 2 2 2 2 2 2 2 3 3 3 3 3 6 6 5 6 7 7 7 6 6 6 6 7 7 8
1 1 2 2 3 2 2 3 2 3 3 3 2 2 3 2 2 1 2 2 2 2 2 2 2 2 3 3 2 3 5 5 5 6 7 7 7 6 6 6 6 7 8
1 1 1 1 2 2 2 2 2 3 3 3 3 2 2 2 4 3 2 2 2 2 1 2 2 2 2 2 2 3 4 4 4 5 6 7 7 7 7 6 5 7 8
1 2 2 2 3 3 2 3 3 3 3 3 4 3 3 3 3 3 3 4 3 2 1 2 2 2 2 2 1 4 3 4 5 5 5 6 7 7 7 7 7 7 7
2 2 2 3 3 3 3 3 3 3 3 3 4 3 4 4 3 4 4 3 3 2 2 2 2 1 2 2 2 4 4 5 5 5 5 6 6 7 7 7 7 7 8
2 2 3 3 3 3 3 3 4 3 3 3 3 3 3 3 3 4 4 4 4 3 3 2 2 2 2 2 1 4 4 6 5 5 6 6 6 7 7 7 7 7 8
3 2 3 3 3 3 3 4 3 3 3 4 4 4 4 3 3 4 4 4 4 4 3 2 2 2 3 2 2 4 4 5 6 7 7 7 7 7 7 7 7 8 8
2 2 3 3 3 3 3 4 4 3 3 3 3 3 3 3 3 3 3 4 4 5 4 2 2 2 2 3 3 4 4 7 8 8 8 7 7 7 7 7 7 8 8
3 3 3 3 3 3 3 3 4 3 4 3 3 3 3 3 3 3 3 3 3 4 5 3 2 1 2 3 2 4 5 5 5 9 8 8 8 7 7 7 7 8 8
4 4 3 3 3 3 3 4 4 3 3 3 3 3 3 3 3 3 3 3 3 3 5 4 3 2 2 3 3 5 4 5 4 8 10 9 9 8 8 7 8 8 8
4 4 3 3 3 3 3 3 3 3 3 3 3 3 3 3 3 3 4 4 3 4 4 4 4 2 3 2 3 4 4 3 5 5 10 11 10 9 9 8 8 8 8
3 3 3 3 3 3 2 3 3 3 3 2 3 3 3 3 3 4 4 4 4 4 4 5 4 3 3 2 3 4 3 3 4 4 3 5 8 11 10 9 8 8 8
3 3 3 3 3 3 2 2 3 3 3 3 2 2 2 2 3 4 4 4 4 4 4 4 4 3 3 2 3 4 4 4 4 4 4 4 5 6 7 9 9 9 9
2 2 2 2 3 2 2 1 3 3 3 3 3 2 3 2 2 3 3 4 4 5 5 4 4 4 3 4 4 5 5 5 4 3 5 6 5 5 5 6 7 9 9
3 3 2 2 2 0 2 0 2 3 3 2 2 3 3 1 2 3 3 5 4 4 4 5 5 5 4 4 5 6 5 6 6 4 5 6 5 5 5 4 10 10 10
2 2 2 2 2 1 2 1 2 3 2 2 2 3 3 3 2 3 4 4 4 3 4 5 5 5 5 4 5 7 7 7 7 5 4 6 5 5 5 5 10 11 11
2 2 2 2 2 1 2 1 3 2 2 2 2 2 3 2 2 3 4 4 4 4 4 3 4 5 5 5 6 6 6 6 6 5 3 5 6 6 6 6 6 13 12
2 2 2 2 2 1 3 2 2 2 2 2 2 2 2 1 1 2 4 4 4 5 5 4 5 6 7 7 7 6 7 7 7 6 3 4 6 5 5 5 4 5 8
Wind_Direction
154 151 141 164 171 162 183 194 204 201 236 206 202 192 200 187 183 181 148 160 184 201 208 212 213 215 212 209 209 211 211 213 215 219 219 220 221 218 214 213 212 209 206
160 185 174 177 193 198 181 205 221 235 238 249 218 190 215 196 175 189 173 169 180 194 206 213 215 215 210 209 210 211 211 212 215 218 221 220 217 219 220 218 215 213 209
174 209 185 199 206 209 171 203 209 224 228 220 206 214 208 197 180 185 194 192 180 186 195 205 211 212 212 214 216 215 214 214 215 218 220 219 219 218 223 219 214 212 209
210 240 231 224 235 227 200 198 224 225 251 251 211 239 226 173 183 194 199 202 206 189 181 190 203 210 216 218 221 221 218 217 216 217 222 225 221 218 222 217 209 205 206
229 244 266 346 246 241 239 249 169 247 235 251 243 218 234 209 202 188 189 206 199 205 193 172 190 204 212 218 223 224 223 220 215 217 220 224 222 217 214 208 205 205 206
227 251 207 239 265 253 261 271 248 246 250 256 275 304 259 230 215 185 212 190 191 203 205 195 192 196 202 213 221 223 224 221 217 218 218 219 218 217 212 209 207 206 205
221 231 235 204 260 258 268 257 249 210 225 222 243 235 197 199 197 201 213 208 192 200 204 211 225 219 194 196 205 214 219 225 224 219 214 216 216 217 215 215 212 210 208
227 210 217 232 247 257 251 252 248 258 246 229 270 271 239 194 198 208 207 205 217 213 210 205 208 223 248 210 172 191 211 222 221 214 211 211 215 214 217 216 215 212 208
211 233 220 243 249 254 247 242 239 243 253 245 256 274 279 278 221 201 206 211 225 239 233 215 213 211 229 230 197 173 186 207 209 210 210 211 213 213 217 223 224 215 208
232 220 234 243 254 256 245 250 238 254 257 259 238 256 286 312 277 246 216 193 210 236 258 260 234 213 225 222 181 154 175 197 207 210 211 210 211 213 217 222 223 215 208
220 237 232 252 265 271 275 283 271 262 254 266 268 252 250 243 254 264 263 254 235 241 256 263 261 239 226 225 206 137 157 193 208 212 213 212 211 212 215 217 217 213 207
216 228 227 247 257 274 269 264 268 254 266 275 274 262 253 260 257 253 251 245 249 243 238 248 253 238 227 233 205 122 164 201 207 213 219 217 215 216 217 218 217 215 210
227 225 242 248 261 265 265 266 254 271 264 265 265 267 263 260 270 263 263 261 265 251 233 234 243 236 231 246 194 159 187 196 203 214 223 224 221 221 220 217 218 219 218
254 248 244 247 253 259 259 259 261 259 260 260 262 270 265 260 259 256 261 262 258 252 227 248 250 237 233 244 150 216 200 184 201 216 223 221 220 219 219 219 221 223 223
245 233 244 244 245 250 258 257 261 271 266 257 254 243 254 257 255 253 254 262 268 270 254 232 246 249 241 231 195 236 234 187 203 218 223 221 218 217 217 218 222 226 226
256 246 239 242 243 245 248 255 254 258 257 258 266 275 269 261 262 259 255 260 266 275 276 261 253 258 280 253 201 243 239 190 203 210 214 218 218 217 218 221 225 229 230
240 241 243 242 242 242 246 253 265 264 261 265 266 250 255 277 273 267 260 261 260 266 267 268 267 242 257 274 240 249 241 230 207 190 200 212 217 218 220 222 227 230 232
237 237 241 242 243 241 247 250 259 263 263 263 271 274 270 257 254 268 273 267 265 266 267 269 265 254 252 252 251 258 250 240 242 182 192 205 213 217 218 221 226 227 228
236 237 234 240 247 248 248 252 255 258 261 264 267 274 284 283 277 276 270 268 265 255 257 259 257 268 264 255 256 254 254 264 258 196 193 202 209 216 219 222 227 226 222
224 229 233 233 236 240 247 253 250 253 263 271 279 283 290 292 286 281 264 263 266 265 256 255 260 258 256 244 261 266 260 252 265 259 228 215 207 212 214 216 218 219 217
224 221 227 230 238 234 243 251 252 248 254 262 271 275 279 293 318 300 292 279 271 267 262 260 262 267 272 272 271 273 276 272 256 262 264 241 219 226 216 216 219 218 219
224 217 225 235 244 252 69 25 281 266 261 260 264 271 253 226 225 225 272 301 296 270 273 272 270 274 274 278 288 282 282 279 275 254 265 261 242 240 232 229 195 198 210
206 215 223 238 254 340 88 135 273 262 251 253 255 265 278 283 248 272 238 225 239 243 260 267 275 281 277 280 283 278 277 280 283 284 268 266 254 251 245 217 169 188 205
203 215 227 234 239 192 115 164 264 234 246 248 250 255 268 287 302 300 276 261 261 257 245 247 267 275 284 285 269 270 280 272 264 256 263 272 272 267 267 244 174 187 205
199 212 214 217 224 172 128 167 257 232 230 241 249 261 269 277 18 310 275 265 262 258 231 227 260 265 284 281 283 278 275 273 274 265 241 266 275 276 269 260 205 189 203
201 209 202 198 196 195 148 161 265 245 239 245 232 229 169 244 351 289 270 269 267 273 275 248 239 241 249 246 235 252 270 273 275 274 266 265 274 278 273 266 261 223 221
Height
1536 1537 1536 1537 1537 1538 1538 1537 1537 1537 1536 1536 1536 1536 1537 1538 1538 1539 1539 1538 1538 1539 1539 1539 1540 1540 1541 1541 1542 1542 1542 1542 1542 1542 1543 1543 1543 1543 1544 1544 1545 1546 1547
1536 1537 1537 1537 1538 1538 1538 1538 1537 1537 1537 1536 1536 1536 1537 1537 1537 1538 1539 1538 1538 1538 1538 1539 1539 1539 1540 1540 1541 1541 1541 1541 1541 1541 1541 1541 1541 1541 1542 1542 1543 1544 1545
1536 1537 1537 1537 1537 1538 1537 1537 1537 1537 1537 1537 1536 1537 1537 1537 1537 1538 1538 1538 1538 1537 1537 1538 1538 1538 1539 1539 1539 1539 1539 1540 1540 1539 1539 1538 1538 1538 1538 1538 1539 1541 1543
1536 1536 1537 1537 1537 1537 1537 1537 1538 1538 1537 1537 1537 1537 1537 1537 1537 1537 1537 1537 1537 1538 1537 1537 1537 1537 1538 1538 1538 1538 1538 1538 1538 1538 1537 1536 1536 1535 1534 1533 1535 1538 1540
1535 1536 1536 1536 1536 1537 1537 1537 1537 1537 1537 1537 1537 1536 1537 1536 1536 1537 1536 1536 1536 1536 1537 1536 1536 1536 1536 1536 1536 1536 1536 1536 1536 1536 1536 1535 1534 1534 1533 1532 1534 1536 1538
1535 1535 1536 1535 1536 1537 1536 1536 1536 1536 1536 1536 1536 1536 1536 1536 1536 1536 1536 1536 1535 1535 1536 1535 1535 1535 1534 1534 1534 1534 1534 1535 1535 1534 1534 1534 1533 1533 1533 1533 1534 1535 1536
1534 1534 1535 1534 1535 1535 1535 1536 1536 1536 1536 1536 1536 1535 1535 1535 1535 1534 1534 1535 1535 1534 1534 1534 1534 1534 1534 1533 1533 1533 1533 1533 1533 1533 1533 1532 1532 1532 1532 1533 1533 1533 1534
1533 1534 1534 1534 1534 1534 1534 1534 1534 1535 1535 1535 1535 1535 1534 1535 1533 1534 1533 1534 1534 1533 1533 1533 1533 1532 1532 1532 1531 1531 1531 1531 1531 1531 1531 1531 1530 1530 1531 1531 1531 1531 1532
1532 1532 1533 1533 1533 1534 1534 1533 1533 1534 1534 1534 1534 1534 1534 1532 1533 1533 1533 1532 1532 1532 1532 1532 1532 1531 1530 1530 1530 1529 1529 1529 1529 1529 1529 1529 1529 1529 1529 1529 1528 1528 1529
1531 1531 1531 1531 1532 1532 1532 1532 1533 1532 1532 1533 1533 1532 1533 1532 1532 1532 1532 1531 1531 1531 1531 1531 1530 1530 1529 1529 1528 1528 1527 1527 1527 1527 1527 1527 1527 1527 1527 1527 1526 1526 1527
1529 1530 1530 1530 1530 1531 1530 1530 1530 1530 1531 1531 1531 1531 1531 1531 1531 1531 1530 1530 1530 1529 1529 1529 1529 1528 1528 1528 1527 1526 1526 1526 1525 1525 1525 1525 1525 1525 1525 1525 1525 1524 1525
1529 1529 1529 1529 1529 1529 1529 1529 1528 1529 1529 1529 1529 1529 1530 1529 1529 1529 1528 1528 1528 1528 1527 1527 1527 1526 1526 1526 1526 1524 1524 1524 1524 1524 1524 1523 1523 1523 1524 1524 1524 1524 1524
1528 1527 1527 1527 1527 1527 1527 1527 1526 1526 1527 1526 1526 1527 1527 1527 1527 1527 1526 1526 1525 1525 1525 1525 1525 1524 1524 1524 1523 1522 1522 1522 1522 1522 1522 1521 1521 1521 1521 1522 1522 1522 1523
1526 1525 1525 1525 1525 1524 1525 1524 1525 1525 1524 1524 1524 1524 1524 1525 1524 1524 1524 1524 1523 1523 1523 1523 1522 1522 1522 1521 1520 1519 1519 1519 1519 1519 1519 1519 1519 1519 1519 1519 1520 1520 1521
1524 1523 1523 1523 1522 1522 1522 1522 1522 1522 1522 1522 1522 1522 1522 1522 1522 1522 1522 1522 1522 1520 1520 1520 1520 1519 1519 1518 1517 1517 1517 1516 1516 1516 1516 1516 1516 1516 1516 1517 1517 1518 1518
1521 1521 1521 1520 1520 1520 1520 1520 1520 1519 1519 1519 1519 1519 1519 1520 1519 1519 1519 1519 1519 1519 1518 1518 1517 1517 1516 1516 1515 1514 1514 1513 1513 1513 1513 1513 1513 1513 1513 1514 1514 1514 1515
1518 1518 1518 1518 1518 1517 1517 1517 1518 1517 1517 1517 1517 1517 1516 1516 1517 1517 1517 1516 1516 1516 1516 1515 1515 1514 1513 1513 1512 1512 1512 1512 1511 1510 1510 1510 1510 1510 1510 1510 1510 1511 1511
1516 1516 1516 1515 1515 1515 1515 1515 1515 1515 1515 1515 1514 1514 1514 1514 1513 1513 1514 1514 1513 1513 1513 1512 1512 1512 1510 1510 1509 1509 1510 1510 1509 1508 1507 1507 1507 1507 1507 1507 1507 1508 1508
1514 1514 1514 1513 1513 1513 1513 1512 1512 1513 1513 1512 1512 1512 1512 1511 1511 1511 1510 1511 1511 1511 1510 1510 1509 1509 1509 1508 1507 1507 1507 1506 1507 1506 1505 1504 1504 1504 1504 1504 1504 1504 1504
1511 1511 1511 1511 1511 1511 1511 1510 1510 1510 1510 1510 1510 1509 1509 1509 1509 1509 1508 1508 1508 1508 1508 1508 1507 1507 1506 1506 1505 1505 1505 1504 1504 1504 1503 1502 1501 1501 1500 1500 1500 1500 1500
1509 1509 1509 1509 1509 1509 1509 1508 1508 1508 1508 1507 1507 1507 1507 1506 1506 1506 1506 1506 1506 1506 1506 1505 1505 1504 1504 1504 1503 1503 1502 1501 1501 1500 1500 1499 1499 1498 1497 1496 1496 1496 1496
1507 1507 1507 1507 1507 1507 1506 1506 1505 1505 1505 1505 1505 1505 1505 1504 1504 1503 1503 1503 1503 1503 1503 1502 1502 1501 1501 1501 1500 1500 1500 1499 1498 1498 1497 1497 1496 1495 1494 1494 1492 1492 1492
1504 1504 1505 1505 1505 1504 1504 1504 1503 1502 1503 1502 1503 1502 1503 1503 1502 1501 1501 1500 1500 1499 1499 1499 1499 1498 1498 1498 1497 1497 1496 1495 1495 1494 1494 1493 1493 1492 1492 1491 1489 1489 1489
1501 1502 1502 1502 1502 1502 1501 1501 1501 1500 1500 1500 1500 1500 1500 1499 1499 1498 1498 1498 1497 1497 1496 1496 1496 1495 1495 1494 1494 1493 1492 1491 1491 1490 1490 1490 1489 1488 1488 1487 1485 1485 1485
1498 1499 1500 1499 1499 1499 1499 1498 1498 1498 1498 1498 1498 1497 1497 1496 1496 1495 1495 1495 1494 1494 1493 1492 1492 1491 1491 1490 1490 1490 1489 1489 1488 1488 1487 1486 1486 1485 1484 1483 1482 1481 1480
1496 1497 1497 1497 1497 1497 1496 1496 1496 1496 1496 1496 1495 1495 1494 1494 1493 1493 1492 1492 1491 1491 1491 1490 1489 1488 1487 1487 1486 1486 1486 1486 1485 1484 1483 1483 1482 1482 1481 1480 1479 1478 1477